• Join FlightAware (Why Join?)
  • Login
  • US Flag GB Flag 
16:15 EST


 

Airport Tracker/Info


-or-


 

Live Flight TrackerFlight Track Log ✈ XOJ549 ✈ 12-May-2013 ✈ KMSY - KSAF

Flight Track Log - Related Links

Times and Time Zones

All times are in EDT time to prevent confusion due to time zone crossing. See the XOJ549 flight status page for this flight to view local times or setup timezone preferences in your user account.

Time Position Orientation Groundspeed Altitude Reporting Facility
EDT Latitude Longitude Course Direction KTS MPH feet Rate Location/Type
14:41 30.0072 -90.2456 12° North 165 190 700  Level Houston Center
14:42 30.0317 -90.2397 12° North 164 189 2,300 3,300 Climbing Houston Center
14:43 30.0794 -90.2578 342° North 230 265 5,900 3,600 Climbing Houston Center
14:44 30.0964 -90.3392 284° West 262 302 9,800 3,960 Climbing Houston Center
14:45 30.1400 -90.4128 304° West 279 321 14,200 3,600 Climbing Houston Center
14:46 30.1875 -90.4867 307° West 282 325 17,300 3,000 Climbing Houston Center
14:47 30.2428 -90.5872 302° West 307 353 20,400 2,700 Climbing Houston Center
14:48 30.2858 -90.6819 298° West 330 380 23,000 2,880 Climbing Houston Center
14:49 30.3422 -90.7672 307° West 328 377 26,400 2,580 Climbing Houston Center
14:50 30.4033 -90.8422 313° West 322 371 28,400 1,740 Climbing Houston Center
14:51 30.4658 -90.9264 311° West 340 391 30,100 1,620 Climbing Houston Center
14:52 30.5319 -91.0153 311° West 359 413 31,800 1,620 Climbing Houston Center
14:53 30.5986 -91.1075 310° West 371 427 33,500 1,740 Climbing Houston Center
14:54 30.6753 -91.2219 308° West 373 429 35,500 1,740 Climbing Houston Center
14:55 30.7133 -91.3281 293° West 356 410 37,200 1,500 Climbing Houston Center
14:56 30.7542 -91.4278 295° West 349 402 38,600 1,140 Climbing Houston Center
14:57 30.7961 -91.5306 295° West 352 405 39,600 660 Climbing Houston Center
14:58 30.8386 -91.6350 295° West 355 409 40,000 180 Climbing Houston Center
14:59 30.8914 -91.7689 295° West 377 434 40,000 180 Level Houston Center
15:00 30.9372 -91.8839 295° West 389 448 40,400 1,080 Climbing Houston Center
15:01 30.9792 -91.9892 295° West 356 410 42,300 1,260 Climbing Houston Center
15:02 31.0217 -92.0975 295° West 346 398 43,000 300 Climbing Houston Center
15:03 31.0625 -92.2011 295° West 352 405 43,000  Level Houston Center
15:04 31.1044 -92.3086 295° West 362 417 43,000  Level Houston Center
15:05 31.1481 -92.4192 295° West 373 429 43,000  Level Houston Center
15:06 31.2011 -92.5514 295° West 375 432 43,000  Level Houston Center
15:07 31.2436 -92.6614 294° West 375 432 43,000  Level Houston Center
15:08 31.2878 -92.7747 295° West 385 443 43,000  Level Houston Center
15:09 31.3319 -92.8847 295° West 378 435 43,000  Level Houston Center
15:10 31.3750 -92.9961 294° West 377 434 43,000  Level Houston Center
15:11 31.4172 -93.1078 294° West 377 434 43,000  Level Houston Center
15:12 31.4692 -93.2408 295° West 377 434 43,000  Level Houston Center
15:14 31.5067 -93.3392 294° West 377 434 43,000  Level Houston Center
15:15 31.5586 -93.4756 294° West 382 440 43,000  Level Houston Center
15:16 31.6011 -93.5892 294° West 382 440 43,000  Level Houston Center
15:16 31.6253 -93.6661 290° West 380 437 43,000  Level Fort Worth Center
15:17 31.6703 -93.7789 295° West 380 437 43,000  Level Fort Worth Center
15:18 31.7133 -93.8919 294° West 375 432 43,000  Level Fort Worth Center
15:19 31.7542 -94.0078 293° West 375 432 43,000  Level Fort Worth Center
15:20 31.8008 -94.1183 296° West 375 432 43,000  Level Fort Worth Center
15:21 31.8433 -94.2319 294° West 375 432 43,000  Level Fort Worth Center
15:22 31.8858 -94.3453 294° West 375 432 43,000  Level Fort Worth Center
15:23 31.9281 -94.4564 294° West 375 432 43,000  Level Fort Worth Center
15:24 31.9706 -94.5728 293° West 375 432 43,000  Level Fort Worth Center
15:25 32.0106 -94.6867 293° West 375 432 43,000  Level Fort Worth Center
15:26 32.0525 -94.7981 294° West 375 432 43,000  Level Fort Worth Center
15:27 32.0925 -94.9097 293° West 375 432 43,000  Level Fort Worth Center
15:28 32.1344 -95.0239 293° West 375 432 43,000  Level Fort Worth Center
15:29 32.1761 -95.1356 294° West 375 432 43,000  Level Fort Worth Center
15:30 32.2178 -95.2500 293° West 375 432 43,000  Level Fort Worth Center
15:31 32.2572 -95.3644 292° West 375 432 43,000  Level Fort Worth Center
15:32 32.2986 -95.4792 293° West 375 432 43,000  Level Fort Worth Center
15:33 32.3381 -95.5964 292° West 381 438 43,000  Level Fort Worth Center
15:34 32.3794 -95.7111 293° West 381 438 43,000  Level Fort Worth Center
15:35 32.4206 -95.8308 292° West 381 438 43,000  Level Fort Worth Center
15:36 32.4617 -95.9433 293° West 381 438 43,000  Level Fort Worth Center
15:37 32.5069 -96.0733 292° West 389 448 43,000  Level Fort Worth Center
15:38 32.5433 -96.1786 292° West 389 448 43,000  Level Fort Worth Center
15:39 32.5886 -96.3089 292° West 394 453 43,000  Level Fort Worth Center
15:40 32.6269 -96.4194 292° West 394 453 43,000  Level Fort Worth Center
15:41 32.6697 -96.5544 291° West 394 453 43,000  Level Fort Worth Center
15:42 32.7081 -96.6653 292° West 394 453 43,000  Level Fort Worth Center
15:43 32.7525 -96.8008 291° West 405 466 43,000  Level Fort Worth Center
15:44 32.7928 -96.9217 292° West 405 466 43,000  Level Fort Worth Center
15:45 32.8308 -97.0328 292° West 405 466 43,000  Level Fort Worth Center
15:46 32.8750 -97.1711 291° West 405 466 43,000  Level Fort Worth Center
15:47 32.9125 -97.2822 292° West 405 466 43,000  Level Fort Worth Center
15:48 32.9586 -97.4208 292° West 410 472 43,000  Level Fort Worth Center
15:49 32.9942 -97.5397 290° West 421 484 43,000  Level Fort Worth Center
15:50 33.0356 -97.6661 291° West 421 484 43,000  Level Fort Worth Center
15:51 33.0769 -97.8053 290° West 414 476 43,000  Level Fort Worth Center
15:52 33.1161 -97.9219 292° West 409 471 43,000  Level Fort Worth Center
15:53 33.1594 -98.0611 290° West 409 471 43,000  Level Fort Worth Center
15:54 33.1964 -98.1756 291° West 409 471 43,000  Level Fort Worth Center
15:55 33.2414 -98.3175 291° West 409 471 43,000  Level Fort Worth Center
15:56 33.2819 -98.4497 290° West 414 476 43,000  Level Fort Worth Center
15:57 33.3186 -98.5669 291° West 414 476 43,000  Level Fort Worth Center
15:58 33.3592 -98.6967 291° West 414 476 43,000  Level Fort Worth Center
15:59 33.3994 -98.8267 290° West 419 482 43,000  Level Fort Worth Center
16:00 33.4394 -98.9594 290° West 419 482 43,000  Level Fort Worth Center
16:01 33.4817 -99.0894 291° West 419 482 43,000  Level Fort Worth Center
16:02 33.5194 -99.2222 289° West 419 482 43,000  Level Fort Worth Center
16:03 33.5614 -99.3528 291° West 419 482 43,000  Level Fort Worth Center
16:04 33.5989 -99.4833 289° West 419 482 43,000  Level Fort Worth Center
16:05 33.6406 -99.6189 290° West 419 482 43,000  Level Fort Worth Center
16:06 33.6778 -99.7472 289° West 424 488 43,000  Level Fort Worth Center
16:07 33.7192 -99.8808 290° West 424 488 43,000  Level Fort Worth Center
16:08 33.7561 -100.0142 288° West 424 488 43,000  Level Fort Worth Center
16:09 33.7950 -100.1453 290° West 424 488 43,000  Level Fort Worth Center
16:10 33.8336 -100.2817 289° West 424 488 43,000  Level Fort Worth Center
16:11 33.8722 -100.4178 289° West 430 495 43,000  Level Fort Worth Center
16:12 33.9128 -100.5494 290° West 425 489 43,000  Level Fort Worth Center
16:13 33.9511 -100.6836 289° West 425 489 43,000  Level Fort Worth Center
16:14 33.9914 -100.8203 290° West 430 495 43,000  Level Fort Worth Center
16:15 34.0292 -100.9544 289° West 430 495 43,000  Level Fort Worth Center
16:16 34.0728 -101.1067 289° West 430 495 43,000  Level Fort Worth Center
16:17 34.1103 -101.2464 288° West 435 501 43,000  Level Fort Worth Center
16:18 34.1519 -101.3836 290° West 435 501 43,000  Level Fort Worth Center
16:19 34.1892 -101.5211 288° West 437 503 43,000  Level Fort Worth Center
16:20 34.2286 -101.6558 290° West 429 494 43,000  Level Fort Worth Center
16:21 34.2656 -101.7936 288° West 430 495 43,000  Level Fort Worth Center
16:22 34.3022 -101.9336 288° West 430 495 43,000  Level Fort Worth Center
16:23 34.3411 -102.0714 289° West 430 495 43,000  Level Fort Worth Center
16:24 34.3658 -102.1578 289° West 436 502 43,000  Level Albuquerque Center
16:25 34.4033 -102.2983 288° West 437 503 43,000  Level Albuquerque Center
16:26 34.4425 -102.4397 289° West 439 505 43,000  Level Albuquerque Center
16:27 34.4803 -102.5794 288° West 438 504 43,000  Level Albuquerque Center
16:28 34.5194 -102.7286 288° West 439 505 43,000  Level Albuquerque Center
16:29 34.5575 -102.8733 288° West 445 512 43,000  Level Albuquerque Center
16:30 34.5967 -103.0172 288° West 445 512 43,000  Level Albuquerque Center
16:31 34.6408 -103.1861 288° West 446 513 43,000  Level Albuquerque Center
16:32 34.6786 -103.3308 288° West 447 514 43,000  Level Albuquerque Center
16:33 34.7164 -103.4758 288° West 445 512 43,000  Level Albuquerque Center
16:34 34.7542 -103.6186 288° West 441 507 43,000 -120 Level Albuquerque Center
16:35 34.7911 -103.7619 287° West 439 505 42,800 -540 Descending Albuquerque Center
16:36 34.8367 -103.9033 291° West 442 509 41,900 -900 Descending Albuquerque Center
16:37 34.8853 -104.0456 293° West 446 513 41,000 -960 Descending Albuquerque Center
16:38 34.9325 -104.1903 292° West 451 519 40,000 -960 Descending Albuquerque Center
16:39 34.9811 -104.3381 292° West 457 526 39,100 -1,080 Descending Albuquerque Center
16:40 35.0300 -104.4878 292° West 463 533 37,800 -1,380 Descending Albuquerque Center
16:41 35.0817 -104.6419 292° West 477 549 36,300 -1,980 Descending Albuquerque Center
16:42 35.1322 -104.7944 292° West 478 550 33,800 -2,820 Descending Albuquerque Center
16:44 35.1817 -104.9442 292° West 472 543 30,600 -2,940 Descending Albuquerque Center
16:45 35.2383 -105.1211 291° West 473 544 27,800 -2,700 Descending Albuquerque Center
16:46 35.2872 -105.2717 292° West 473 544 25,100 -2,400 Descending Albuquerque Center
16:47 35.3264 -105.4108 289° West 443 510 23,000 -1,380 Descending Albuquerque Center
16:48 35.3300 -105.5522 272° West 417 480 22,300 -1,020 Descending Albuquerque Center
16:49 35.3403 -105.6850 275° West 397 457 20,900 -2,820 Descending Albuquerque Center
16:50 35.3197 -105.8108 259° West 382 440 16,600 -3,420 Descending Albuquerque Center
16:51 35.3075 -105.9356 263° West 371 427 14,000 -2,280 Descending Albuquerque Center
16:52 35.3464 -106.0211 299° West 316 364 12,000 -1,500 Descending Albuquerque Center
16:53 35.4122 -106.0661 331° Northwest 288 331 11,000 -1,080 Descending Albuquerque Center
16:54 35.4731 -106.0989 336° Northwest 265 305 9,900 -1,500 Descending Albuquerque Center
16:55 35.5314 -106.1361 333° Northwest 230 265 8,000 -1,380 Descending Albuquerque Center
16:56 35.5736 -106.1278 North 189 217 7,100 -900 Descending Albuquerque Center